Home > Weather > St. Augustine > Past weeks

Flag for U.S.A. Weather for the Past 2 Weeks in St. Augustine, Florida, U.S.A.

Now
53 °F

Partly sunny.


Feels Like: 51 °F
Forecast: 50 / 72 °F
Wind: 7 mph from Southwest

Location: St. Augustine Airport

Current Time: Feb 12, 2016 at 8:12:09 AM

Latest Report: Feb 12, 2016 at 7:58 AM


Visibility: 10 mi

Pressure: 30.25 "Hg

Humidity: 93%

Dew point: 51 °F

Location of St. AugustineLocation

Historic Weather in St. Augustine — Graph

°F

St. Augustine Temperature Yesterday

Maximum temperature yesterday: 67 °F (at 3:58 PM)
Minimum temperature yesterday: 34 °F (at 6:58 AM)
Average temperature yesterday: 49 °F

High & Low Weather Summary for the Past Weeks

 TemperatureHumidityPressure
High79 °F (Feb 3, 12:02 PM)100% (Jan 28, 11:02 AM)30.33 "Hg (Jan 28, 11:02 AM)
Low34 °F (Feb 11, 6:58 AM)19% (Feb 10, 1:58 PM)29.77 "Hg (Jan 28, 3:58 PM)
Average56 °F72%30.08 "Hg
* Reported Jan 28 6:58 AM — Feb 12 6:58 AM, St. Augustine, Weather by CustomWeather, © 2016

Note: Actual official high and low records may vary slightly from our data, if they occured in-between our weather recording intervals... More about our weather records

Advertising

St. Augustine Weather History for the Previous 24 Hours

 ConditionsComfort  
Time TempWeatherWind HumidityBarometerVisibility
6:58 AM
Fri, Feb 12
49 °FClear.6 mph97%30.24 "Hg10 mi
5:58 AM49 °FClear.3 mph93%30.24 "Hg10 mi
4:58 AM50 °FClear.No wind93%30.22 "Hg10 mi
3:58 AM51 °FClear.3 mph92%30.22 "Hg10 mi
2:58 AM52 °FClear.3 mph89%30.23 "Hg10 mi
1:58 AM53 °FClear.7 mph86%30.23 "Hg10 mi
12:58 AM53 °FClear.7 mph86%30.24 "Hg10 mi
11:58 PM
Thu, Feb 11
54 °FClear.7 mph80%30.24 "Hg10 mi
9:58 PM56 °FClear.9 mph75%30.25 "Hg10 mi
8:58 PM54 °FClear.5 mph69%30.25 "Hg10 mi
7:58 PM54 °FClear.6 mph69%30.24 "Hg10 mi
6:58 PM56 °FClear.9 mph67%30.22 "Hg10 mi
5:58 PM59 °FSunny.10 mph62%30.21 "Hg10 mi
3:58 PM67 °FSunny.10 mph33%30.19 "Hg10 mi
2:58 PM66 °FSunny.7 mph34%30.20 "Hg10 mi
1:58 PM65 °FSunny.9 mph32%30.22 "Hg10 mi
12:58 PM62 °FSunny.7 mph31%30.25 "Hg10 mi
11:58 AM59 °FSunny.7 mph31%30.29 "Hg10 mi
10:58 AM57 °FSunny.6 mph32%30.32 "Hg10 mi
9:58 AM50 °FSunny.No wind38%30.33 "Hg10 mi
8:58 AM44 °FSunny.6 mph55%30.33 "Hg10 mi
Weather by CustomWeather, © 2016

See weather overviewHow to use our weather pages